Flag for Uzbekistan

Past Weather in Tashkent, Uzbekistan — Yesterday and Last 2 Weeks

Now
73 °F

Clear.


Feels Like: 77 °F
Forecast: 96 / 72 °F
Wind: 5 mph from East

Location: Tashkent

Current Time: Jul 12, 2020 at 3:08:53 am

Latest Report: Jul 12, 2020 at 2:00 am


Visibility: 10 mi

Pressure: 29.68 "Hg

Humidity: 57%

Dew Point: 57 °F

Location of TashkentLocation

Past Weather in Tashkent — Graph

°F

Tashkent Temperature Yesterday

Maximum temperature yesterday: 93 °F (at 1:30 pm)
Minimum temperature yesterday: 70 °F (at 5:00 am)
Average temperature yesterday: 83 °F

High & Low Weather Summary for the Past Weeks

 TemperatureHumidityPressure
High100 °F (Jul 9, 1:30 pm)83% (Jun 27, 4:00 am)30.04 "Hg (Jun 27, 4:00 am)
Low55 °F (Jun 28, 5:00 am)9% (Jun 29, 2:30 pm)29.59 "Hg (Jul 9, 3:30 pm)
Average81 °F30%29.77 "Hg
* Reported Jun 27 1:00 am — Jul 12 1:30 am, Tashkent. Weather by CustomWeather, © 2020

Note: Actual official high and low records may vary slightly from our data, if they occured in-between our weather recording intervals... More about our weather records

Tashkent Weather History for the Previous 24 Hours

Scroll right to see more
 ConditionsComfort  
Time TempWeatherWind HumidityBarometerVisibility
1:30 am
Sun, Jul 12
75 °FClear.7 mph54%29.68 "Hg10 mi
1:00 am77 °FClear.7 mph51%29.68 "Hg10 mi
12:30 am77 °FClear.7 mph51%29.68 "Hg10 mi
12:00 am77 °FClear.7 mph51%29.68 "Hg10 mi
11:30 pm
Sat, Jul 11
77 °FClear.7 mph51%29.71 "Hg2 mi
11:00 pm79 °FClear.7 mph51%29.71 "Hg2 mi
10:30 pm79 °FClear.5 mph51%29.71 "Hg2 mi
10:00 pm79 °FClear.5 mph51%29.71 "Hg2 mi
9:30 pm81 °FClear.7 mph48%29.71 "Hg2 mi
9:00 pm81 °FClear.5 mph48%29.71 "Hg2 mi
8:30 pm82 °FClear.5 mph40%29.71 "Hg2 mi
8:00 pm82 °FPassing clouds.5 mph42%29.68 "HgN/A
7:30 pm84 °FScattered clouds.5 mph40%29.68 "HgN/A
7:00 pm84 °FScattered clouds.5 mph40%29.71 "HgN/A
6:30 pm86 °FScattered clouds.5 mph35%29.71 "HgN/A
5:30 pm88 °FScattered clouds.9 mph31%29.71 "HgN/A
4:30 pm93 °FScattered clouds.9 mph24%29.71 "HgN/A
4:00 pm93 °FPassing clouds.7 mph23%29.71 "HgN/A
3:30 pm93 °FPassing clouds.9 mph23%29.71 "HgN/A
3:00 pm93 °FPassing clouds.7 mph23%29.68 "HgN/A
2:30 pm93 °FPassing clouds.7 mph24%29.68 "HgN/A
2:00 pm93 °FPassing clouds.5 mph23%29.71 "HgN/A
1:30 pm93 °FPassing clouds.12 mph23%29.71 "HgN/A
1:00 pm91 °FPassing clouds.9 mph28%29.71 "HgN/A
12:30 pm91 °FPassing clouds.7 mph24%29.71 "HgN/A
12:00 pm91 °FPassing clouds.9 mph26%29.71 "HgN/A
11:30 am90 °FPassing clouds.9 mph27%29.71 "HgN/A
10:30 am90 °FPassing clouds.9 mph27%29.71 "HgN/A
10:00 am90 °FPassing clouds.9 mph27%29.71 "HgN/A
9:30 am88 °FPassing clouds.7 mph29%29.71 "HgN/A
9:00 am86 °FSunny.2 mph31%29.71 "Hg10 mi
8:30 am84 °FPassing clouds.5 mph35%29.71 "HgN/A
8:00 am81 °FPassing clouds.5 mph39%29.71 "HgN/A
7:30 am81 °FPassing clouds.7 mph39%29.71 "HgN/A
7:00 am79 °FPassing clouds.5 mph42%29.71 "HgN/A
6:30 am77 °FPassing clouds.7 mph44%29.71 "HgN/A
5:30 am73 °FSunny.5 mph53%29.71 "Hg10 mi
5:00 am70 °FSunny.2 mph60%29.71 "Hg10 mi
4:30 am73 °FPassing clouds.5 mph53%29.71 "HgN/A
4:00 am73 °FClear.7 mph50%29.71 "Hg10 mi
3:30 am75 °FClear.5 mph47%29.71 "Hg10 mi
3:00 am75 °FPassing clouds.2 mph47%29.68 "HgN/A
Weather by CustomWeather, © 2020

See weather overview